Tracking 19575 objects as of 18-Feb-2019
HD Live streaming from Space Station
objects crossing your sky now

STTW-3

Track STTW-3 now!
STTW-3 is classified as:


NORAD ID: 19710
Int'l Code: 1988-111A
Perigee: 35,799.8 km
Apogee: 35,829.8 km
Inclination: 15.1 °
Period: 1,437.2 minutes
Semi major axis: 42185 km
RCS: 6.3096 m2 (large)
Launch date: December 22, 1988
Source: People's Republic of China (PRC)
Launch site: Xichang Space Center, China (XSC)
aabbcc
Your satellite tracking list
Your tracking list is empty




NASA's NSSDC Master Catalog

Two Line Element Set (TLE):
1 19710U 88111A   19048.89713953 -.00000011 +00000-0 +00000-0 0  9997
2 19710 015.1332 007.9591 0003555 032.5828 134.9198 01.00196843104004
Source of the keplerian elements: AFSPC